This is the latest recevied weather packets stored in our database for station/object DG7YEO-13. If no packets are shown the sender has not sent any weather packets the latest 1 day(s).
| Time | Temp. | Humidity | Pressure | Rain* | Wind** | Luminosity | Snow |
|---|---|---|---|---|---|---|---|
| 1778059926 | 8.33° C | 96% | 1006.4 hPa | 0 mm | - | - | - |
| 1778058125 | 8.33° C | 96% | 1006.3 hPa | 0 mm | - | - | - |
| 1778057225 | 8.33° C | 96% | 1006.2 hPa | 0.25 mm | - | - | - |
| 1778056325 | 8.33° C | 96% | 1006 hPa | 0.51 mm | - | - | - |
| 1778055425 | 8.33° C | 96% | 1006 hPa | 1.02 mm | - | - | - |
| 1778054526 | 8.33° C | 96% | 1005.8 hPa | 1.52 mm | - | - | - |
| 1778053625 | 8.33° C | 96% | 1005.8 hPa | 1.78 mm | - | - | - |
| 1778052725 | 8.33° C | 96% | 1005.7 hPa | 2.29 mm | - | - | - |
| 1778050025 | 8.89° C | 97% | 1005.5 hPa | 2.29 mm | - | - | - |
| 1778049125 | 8.89° C | 97% | 1005.4 hPa | 1.78 mm | - | - | - |
| 1778048225 | 8.89° C | 97% | 1005.3 hPa | 1.52 mm | - | - | - |
| 1778047325 | 8.89° C | 97% | 1005.2 hPa | 1.78 mm | - | - | - |
| 1778046425 | 8.89° C | 97% | 1005.1 hPa | 2.03 mm | - | - | - |
| 1778044624 | 8.89° C | 97% | 1005.1 hPa | 2.29 mm | - | - | - |
| 1778042825 | 9.44° C | 96% | 1005.1 hPa | 2.03 mm | - | - | - |
| 1778041925 | 9.44° C | 97% | 1005.1 hPa | 2.29 mm | - | - | - |
| 1778041025 | 9.44° C | 96% | 1005.1 hPa | 1.78 mm | - | - | - |
| 1778040126 | 9.44° C | 96% | 1005.1 hPa | 1.78 mm | - | - | - |
| 1778039225 | 9.44° C | 96% | 1005.1 hPa | 2.03 mm | - | - | - |
| 1778037425 | 9.44° C | 97% | 1005.3 hPa | 2.03 mm | - | - | - |
| 1778036525 | 10° C | 97% | 1005.4 hPa | 1.78 mm | - | - | - |
| 1778034725 | 10° C | 96% | 1005.6 hPa | 1.78 mm | - | - | - |
| 1778033834 | 10° C | 96% | 1005.7 hPa | 1.78 mm | - | - | - |
| 1778032925 | 10° C | 96% | 1005.8 hPa | 2.29 mm | - | - | - |
| 1778032025 | 10° C | 96% | 1005.9 hPa | 2.79 mm | - | - | - |
* Rain latest hour (hover to see other rain measurements)
** Current wind speed in m/s (hover to see current wind gust speed)